377P/Scotti (2020)

Japanese version
Home page
Updated on July 18, 2021

---------------------------------------------------------------------

* Profile

Designation 377P/2019 E1
Recovery Date March 9, 2019
Magnitude 20.3 mag
Recoverer E. Schwab (Egelsbach, Germany), D. Abreu (European Space Agency's Optical Ground Station at Tenerife, Spain)

* Pictures

* Orbital Elements

Epoch 2020 July 10.0 TT = JDT 2459040.5
T 2020 July 11.15140 TT                                 Rudenko
q   5.0167844            (2000.0)            P               Q
n   0.05666090     Peri.  354.95665     -0.75374851     +0.64738954
a   6.7134703      Node   226.05888     -0.59731898     -0.74655920
e   0.2527286      Incl.    9.02212     -0.27399492     -0.15341496
P  17.4
From 181 observations 2002 Apr. 5-2021 May 19, mean residual 0".4.

* Magnitudes Graph

        m1 = 2.0 + 5 log d + 20.0 log r

---------------------------------------------------------------------

The orbital elements are published on M.P.E.C. 2021-L04.
The magnitudes graphs are made with Comet for Windows.

---------------------------------------------------------------------

Copyright(C) Seiichi Yoshida (comet@aerith.net). All rights reserved.